This demonstration page uses our WeatherBlox Daily Observations layout. Learn more.

Left ArrowRight Arrow

Hourly Observations for March 2, 2018

Temp ( °F °C ) Dew Point ( °F °C ) Humidity (%) Winds ( mph kmh ) Pressure ( in mb ) Visibility ( mi km ) Precip ( " mm )
12:59 am 00:59 Clear 57 13.9 51 10.6 81 81 WSW 20 31 29.51 999 10 16 0.00 0.00
1:59 am 01:59 Clear 56 13.3 46 7.8 70 70 W 26 43 29.52 1000 10 16 0.00 0.00
2:59 am 02:59 Clear 54 12.2 37 2.8 53 53 W 26 43 29.53 1000 10 16 0.00 0.00
3:59 am 03:59 Clear 52 11.1 34 1.1 50 50 W 26 43 29.56 1001 10 16 0.00 0.00
4:59 am 04:59 Clear 50 10 31 -0.6 48 48 WNW 30 48 29.58 1002 10 16 0.00 0.00
5:59 am 05:59 Partly Cloudy 49 9.4 29 -1.7 46 46 WNW 29 46 29.60 1002 10 16 0.00 0.00
6:59 am 06:59 Mostly Sunny 48 8.9 26 -3.3 42 42 WNW 30 48 29.62 1003 10 16 0.00 0.00
7:59 am 07:59 Partly Cloudy 48 8.9 26 -3.3 42 42 WNW 35 56 29.64 1004 10 16 0.00 0.00
8:59 am 08:59 Partly Cloudy 48 8.9 25 -3.9 41 41 WNW 39 63 29.66 1004 10 16 0.00 0.00
9:59 am 09:59 Partly Cloudy 49 9.4 25 -3.9 39 39 WNW 37 59 29.68 1005 10 16 0.00 0.00
10:59 am 10:59 Partly Cloudy 50 10 25 -3.9 38 38 WNW 41 67 29.69 1006 10 16 0.00 0.00
11:59 am 11:59 Partly Cloudy 52 11.1 25 -3.9 35 35 WNW 38 61 29.70 1006 10 16 0.00 0.00
12:59 pm 12:59 Partly Cloudy 52 11.1 24 -4.4 34 34 WNW 33 54 29.69 1006 10 16 0.00 0.00
1:59 pm 13:59 Partly Cloudy 53 11.7 24 -4.4 32 32 WNW 36 57 29.70 1006 10 16 0.00 0.00
2:59 pm 14:59 Partly Cloudy 53 11.7 22 -5.6 30 30 WNW 40 65 29.71 1006 10 16 0.00 0.00
3:59 pm 15:59 Partly Cloudy 53 11.7 23 -5 31 31 WNW 36 57 29.72 1007 10 16 0.00 0.00
4:59 pm 16:59 Partly Cloudy 52 11.1 25 -3.9 35 35 NW 28 44 29.75 1008 10 16 0.00 0.00
5:59 pm 17:59 Mostly Cloudy 50 10 22 -5.6 33 33 NW 40 65 29.78 1008 10 16 0.00 0.00
6:59 pm 18:59 Mostly Cloudy 49 9.4 23 -5 36 36 WNW 31 50 29.82 1010 10 16 0.00 0.00
7:59 pm 19:59 Cloudy 48 8.9 22 -5.6 36 36 NW 24 39 29.85 1011 10 16 0.00 0.00
8:59 pm 20:59 Cloudy 47 8.3 22 -5.6 37 37 NNW 35 56 29.87 1012 10 16 0.00 0.00
9:59 pm 21:59 Cloudy 46 7.8 21 -6.1 37 37 NW 37 59 29.90 1012 10 16 0.00 0.00
10:59 pm 22:59 Mostly Cloudy 45 7.2 23 -5 42 42 NW 36 57 29.91 1013 10 16 0.00 0.00
11:59 pm 23:59 Cloudy 45 7.2 22 -5.6 40 40 NNW 35 56 29.92 1013 10 16 0.00 0.00

Powered by AerisWeather